This is the latest recevied weather packets stored in our database for station/object W7TRD. If no packets are shown the sender has not sent any weather packets the latest 10 day(s).
| Time | Temp. | Humidity | Pressure | Rain* | Wind** | Luminosity | Snow |
|---|---|---|---|---|---|---|---|
| 1777762209 | 22.78° C | 58% | 1013.1 hPa | 0 mm | - | 526 W/m² | - |
| 1777761905 | 22.78° C | 59% | 1013.2 hPa | 0 mm | - | 490 W/m² | - |
| 1777761602 | 22.22° C | 59% | 1013.3 hPa | 0 mm | - | 481 W/m² | - |
| 1777761299 | 22.22° C | 59% | 1013.4 hPa | 0 mm | - | 508 W/m² | - |
| 1777760998 | 22.78° C | 59% | 1013.5 hPa | 0 mm | - | 532 W/m² | - |
| 1777760695 | 22.22° C | 59% | 1013.6 hPa | 0 mm | - | 575 W/m² | - |
| 1777760390 | 22.22° C | 58% | 1013.6 hPa | 0 mm | - | 604 W/m² | - |
| 1777760087 | 22.22° C | 60% | 1013.6 hPa | 0 mm | - | 593 W/m² | - |
| 1777759784 | 21.11° C | 62% | 1014 hPa | 0 mm | - | 613 W/m² | - |
| 1777759479 | 21.67° C | 59% | 1014 hPa | 0 mm | - | 645 W/m² | - |
| 1777759177 | 21.67° C | 60% | 1014 hPa | 0 mm | - | 648 W/m² | - |
| 1777758874 | 21.67° C | 60% | 1013.8 hPa | 0 mm | - | 653 W/m² | - |
| 1777758571 | 21.67° C | 59% | 1014.1 hPa | 0 mm | - | 653 W/m² | - |
| 1777758267 | 21.67° C | 59% | 1014.1 hPa | 0 mm | - | 667 W/m² | - |
| 1777757965 | 21.11° C | 59% | 1013.9 hPa | 0 mm | - | 689 W/m² | - |
| 1777757661 | 21.11° C | 62% | 1014.2 hPa | 0 mm | - | 663 W/m² | - |
| 1777757360 | 20.56° C | 63% | 1014.2 hPa | 0 mm | - | 618 W/m² | - |
| 1777757059 | 20.56° C | 62% | 1014.2 hPa | 0 mm | - | 719 W/m² | - |
| 1777756756 | 20° C | 64% | 1014.4 hPa | 0 mm | - | 657 W/m² | - |
| 1777756451 | 20° C | 64% | 1014.7 hPa | 0 mm | - | 696 W/m² | - |
| 1777756149 | 20.56° C | 65% | 1014.9 hPa | 0 mm | - | 778 W/m² | - |
| 1777755845 | 20° C | 64% | 1014.8 hPa | 0 mm | - | 844 W/m² | - |
| 1777755543 | 20° C | 63% | 1014.7 hPa | 0 mm | - | 274 W/m² | - |
| 1777755239 | 20° C | 65% | 1015.1 hPa | 0 mm | - | 810 W/m² | - |
| 1777754936 | 20° C | 62% | 1015.2 hPa | 0 mm | - | 777 W/m² | - |
* Rain latest hour (hover to see other rain measurements)
** Current wind speed in m/s (hover to see current wind gust speed)